Hamilton Island, Australia

2:02 PM AEST on April 29, 2017 (GMT +1000)
Hamilton Island

Weather History for YBHM - February, 2014

Change the Weather History Date:

Saturday, February 8, 2014

  Actual Average Record
Temperature  
Mean Temperature 76 °F -  
Max Temperature 80 °F - - ()
Min Temperature 72 °F - - ()
Cooling Degree Days 11    
Growing Degree Days 26 (Base 50)    
Moisture  
Dew Point 74 °F    
Average Humidity 87    
Maximum Humidity 100    
Minimum Humidity 72    
Precipitation  
Precipitation 1.61 in - - ()
Sea Level Pressure  
Sea Level Pressure 29.82 in    
Wind  
Wind Speed 23 mph ()    
Max Wind Speed 37 mph    
Max Gust Speed 44 mph    
Visibility 5.2 miles    
Events      
T = Trace of Precipitation, MM = Missing Value Source: Averaged Metar Reports

Daily Weather History Graph

Daily Weather History Graph

Search for Another Location

Airport or City:

Trip Planner

Search our weather history database for the weather conditions in past years. The results will help you decide how hot, cold, wet, or windy it might be!

Date:

Astronomy

Feb. 08, 2014 Rise Set
Actual Time 5:51 AM AEST 6:44 PM AEST
Civil Twilight 5:28 AM AEST 7:07 PM AEST
Nautical Twilight 5:01 AM AEST 7:35 PM AEST
Astronomical Twilight 4:33 AM AEST 8:02 PM AEST
Moon 1:32 PM AEST (2/8) 12:09 AM AEST (2/8)
Length of Visible Light 13h 39m
Length of Day
12h 53m
Waxing Gibbous, 62% of the Moon is Illuminated
Feb 8
Waxing Gibbous
Feb 15
Full
Feb 23
Last Quarter
Mar 1
New
Mar 8
First Quarter

Hourly Weather History & Observations

Time (AEST) Temp. Heat Index Dew Point Humidity Pressure Visibility Wind Dir Wind Speed Gust Speed Precip Events Conditions
12:00 AM 78 °F - 71 °F 72% 29.85 in - ESE 24.2 mph - -  
12:00 AM 77.0 °F - 69.8 °F 78% 29.86 in 6.2 mi ESE 24.2 mph - N/A   Mostly Cloudy
12:30 AM 77.0 °F - 68.0 °F 74% 29.83 in 6.2 mi ESE 21.9 mph - N/A   Scattered Clouds
1:00 AM 77.0 °F - 69.8 °F 78% 29.83 in 6.2 mi ESE 21.9 mph - N/A   Scattered Clouds
1:30 AM 77.0 °F - 71.6 °F 83% 29.83 in 6.2 mi SE 19.6 mph - N/A   Mostly Cloudy
2:00 AM 77.0 °F - 71.6 °F 83% 29.83 in 6.2 mi SE 18.4 mph - N/A   Mostly Cloudy
2:30 AM 77.0 °F - 71.6 °F 83% 29.80 in 6.2 mi SE 18.4 mph - N/A   Mostly Cloudy
3:00 AM 78 °F - 72 °F 76% 29.80 in - ESE 20.7 mph - -  
3:00 AM 77.0 °F - 71.6 °F 83% 29.80 in 6.2 mi ESE 20.7 mph - N/A   Mostly Cloudy
3:30 AM 77.0 °F - 71.6 °F 83% 29.80 in 6.2 mi ESE 20.7 mph - N/A   Mostly Cloudy
4:00 AM 77.0 °F - 71.6 °F 83% 29.80 in 5.6 mi ESE 23.0 mph - N/A   Mostly Cloudy
4:30 AM 77.0 °F - 73.4 °F 89% 29.80 in 6.2 mi SE 19.6 mph - N/A   Overcast
5:00 AM 77.0 °F - 73.4 °F 89% 29.80 in 6.2 mi SE 24.2 mph - N/A   Mostly Cloudy
5:02 AM 77.0 °F - 71.6 °F 83% 29.80 in 6.2 mi SE 23.0 mph - N/A   Mostly Cloudy
5:30 AM 77.0 °F - 71.6 °F 83% 29.80 in 6.2 mi ESE 23.0 mph - N/A   Mostly Cloudy
6:00 AM 78 °F - 71 °F 73% 29.81 in - ESE 24.2 mph - -   Overcast
6:00 AM 78.8 °F - 71.6 °F 78% 29.80 in 6.2 mi ESE 24.2 mph - N/A   Overcast
6:30 AM 78.8 °F - 71.6 °F 78% 29.83 in 6.2 mi SE 23.0 mph - N/A   Overcast
7:00 AM 77.0 °F - 73.4 °F 89% 29.83 in 6.2 mi ESE 27.6 mph - N/A   Overcast
7:30 AM 78.8 °F - 71.6 °F 78% 29.83 in 6.2 mi ESE 25.3 mph - N/A   Mostly Cloudy
8:00 AM 78.8 °F - 73.4 °F 83% 29.83 in 6.2 mi SE 25.3 mph - N/A   Overcast
8:30 AM 78.8 °F - 73.4 °F 83% 29.86 in 6.2 mi SE 23.0 mph - N/A   Overcast
9:00 AM 79 °F - 73 °F 77% 29.85 in - SE 27.6 mph - -  
9:00 AM 78.8 °F - 73.4 °F 83% 29.86 in 6.2 mi SE 27.6 mph - N/A   Overcast
9:24 AM 78.8 °F - 73.4 °F 83% 29.86 in 6.2 mi SE 26.5 mph - N/A   Overcast
9:30 AM 78.8 °F - 73.4 °F 83% 29.86 in 6.2 mi SE 27.6 mph - N/A   Overcast
10:00 AM 75.2 °F - 75.2 °F 100% 29.86 in 6.2 mi SSE 25.3 mph - N/A   Overcast
10:04 AM 77.0 °F - 75.2 °F 94% 29.86 in 6.2 mi SSE 24.2 mph - N/A   Overcast
10:30 AM 77.0 °F - 73.4 °F 89% 29.83 in 6.2 mi SSE 28.8 mph - N/A   Overcast
10:50 AM 77.0 °F - 75.2 °F 94% 29.83 in 6.2 mi SE 26.5 mph - N/A   Overcast
11:00 AM 77.0 °F - 75.2 °F 94% 29.83 in 6.2 mi SE 29.9 mph - N/A   Overcast
11:30 AM 77.0 °F - 73.4 °F 89% 29.83 in 5.6 mi SSE 28.8 mph - N/A   Overcast
11:35 AM 75.2 °F - 73.4 °F 94% 29.83 in 3.7 mi SSE 27.6 mph - N/A   Overcast
12:00 PM 76 °F - 74 °F 91% 29.83 in 3 mi SSE 31.1 mph - -   Overcast
12:00 PM 75.2 °F - 73.4 °F 94% 29.83 in 3.1 mi SSE 31.1 mph - N/A   Overcast
12:24 PM 77.0 °F - 73.4 °F 89% 29.83 in 4.3 mi SSE 31.1 mph - N/A   Overcast
12:25 PM 77.0 °F - 75.2 °F 94% 29.83 in 3.7 mi SSE 32.2 mph - N/A   Overcast
12:30 PM 77.0 °F - 75.2 °F 94% 29.83 in 2.8 mi SE 32.2 mph - N/A   Overcast
1:00 PM 77.0 °F - 75.2 °F 94% 29.80 in - SE 31.1 mph - N/A   Overcast
1:30 PM 75.2 °F - 75.2 °F 100% 29.80 in - SSE 34.5 mph - N/A   Overcast
2:00 PM 77.0 °F - 75.2 °F 94% 29.77 in - SSE 32.2 mph - N/A   Overcast
2:30 PM 75.2 °F - 75.2 °F 100% 29.77 in - SSE 33.4 mph - N/A   Overcast
3:00 PM 76 °F - 75 °F 96% 29.76 in 2 mi SE 35.7 mph - -  
3:00 PM 75.2 °F - 75.2 °F 100% 29.77 in 1.7 mi SE 35.7 mph - N/A   Overcast
3:18 PM 77.0 °F - 75.2 °F 94% 29.74 in 6.2 mi SE 29.9 mph - N/A   Overcast
3:24 PM 77.0 °F - 73.4 °F 89% 29.77 in 6.2 mi SE 28.8 mph - N/A   Overcast
3:30 PM 77.0 °F - 73.4 °F 89% 29.74 in 6.2 mi SE 27.6 mph - N/A   Overcast
4:00 PM 77.0 °F - 73.4 °F 89% 29.77 in 6.2 mi SE 20.7 mph - N/A   Overcast
4:05 PM 78.8 °F - 75.2 °F 89% 29.77 in 6.2 mi SE 20.7 mph - N/A   Overcast
4:30 PM 78.8 °F - 75.2 °F 89% 29.77 in 6.2 mi SE 18.4 mph - N/A   Overcast
5:00 PM 80.6 °F 86.2 °F 75.2 °F 84% 29.77 in 6.2 mi ESE 23.0 mph - N/A   Overcast
5:20 PM 80.6 °F 86.2 °F 75.2 °F 84% 29.77 in 6.2 mi ESE 23.0 mph - N/A   Overcast
5:31 PM 78.8 °F - 75.2 °F 89% 29.77 in 6.2 mi ESE 23.0 mph - N/A   Overcast
5:50 PM 78.8 °F - 75.2 °F 89% 29.77 in 3.7 mi ESE 24.2 mph - N/A   Overcast
6:00 PM 78 °F - 76 °F 93% 29.78 in 4 mi ESE 23.0 mph - -   Overcast
6:00 PM 78.8 °F - 77.0 °F 94% 29.77 in 3.7 mi ESE 23.0 mph - N/A   Overcast
6:30 PM 77.0 °F - 75.2 °F 94% 29.77 in 1.9 mi ESE 28.8 mph - N/A   Overcast
7:00 PM 77.0 °F - 77.0 °F 100% 29.80 in 0.6 mi East 24.2 mph - N/A   Overcast
7:03 PM 77.0 °F - 77.0 °F 100% 29.80 in 0.6 mi East 23.0 mph 35.7 mph N/A   Overcast
7:06 PM 77.0 °F - 75.2 °F 94% 29.80 in 0.7 mi East 36.8 mph - N/A   Overcast
7:28 PM 77.0 °F - 75.2 °F 94% 29.83 in 0.7 mi ESE 24.2 mph - N/A   Overcast
7:30 PM 77.0 °F - 77.0 °F 100% 29.83 in 0.8 mi ESE 21.9 mph 33.4 mph N/A   Overcast
8:00 PM 78.8 °F - 77.0 °F 94% 29.80 in 3.1 mi East 34.5 mph - N/A   Overcast
8:12 PM 80.6 °F 87.1 °F 77.0 °F 89% 29.80 in 6.2 mi East 36.8 mph - N/A   Overcast
8:24 PM 80.6 °F 87.1 °F 77.0 °F 89% 29.83 in 6.2 mi East 32.2 mph 43.7 mph N/A   Overcast
8:30 PM 80.6 °F 87.1 °F 77.0 °F 89% 29.83 in 6.2 mi East 28.8 mph - N/A   Overcast
8:59 PM 80.6 °F 86.2 °F 75.2 °F 84% 29.86 in 6.2 mi East 27.6 mph 39.1 mph N/A   Overcast
9:00 PM 80 °F - 76 °F 83% 29.85 in - East 27.6 mph - -   Overcast
9:00 PM 80.6 °F 86.2 °F 75.2 °F 84% 29.86 in 6.2 mi East 27.6 mph 39.1 mph N/A   Overcast
9:30 PM 80.6 °F 86.2 °F 75.2 °F 84% 29.86 in 6.2 mi East 23.0 mph - N/A   Overcast
9:51 PM 80.6 °F 86.2 °F 75.2 °F 84% 29.86 in 6.2 mi East 23.0 mph 34.5 mph N/A   Overcast
10:00 PM 80.6 °F 86.2 °F 75.2 °F 84% 29.86 in 6.2 mi East 23.0 mph - N/A   Overcast
10:01 PM 80.6 °F 86.2 °F 75.2 °F 84% 29.86 in 6.2 mi East 23.0 mph - N/A   Overcast
10:11 PM 80.6 °F 86.2 °F 75.2 °F 84% 29.86 in 6.2 mi East 23.0 mph - N/A   Overcast
10:34 PM 80.6 °F 86.2 °F 75.2 °F 84% 29.86 in 6.2 mi ENE 20.7 mph - N/A   Overcast
11:00 PM 80.6 °F 86.2 °F 75.2 °F 84% 29.89 in 6.2 mi ENE 17.3 mph - N/A   Overcast
11:16 PM 80.6 °F 86.2 °F 75.2 °F 84% 29.89 in 6.2 mi ENE 19.6 mph - N/A   Overcast
11:23 PM 80.6 °F 86.2 °F 75.2 °F 84% 29.89 in 6.2 mi East 19.6 mph - N/A   Overcast
11:30 PM 80.6 °F 86.2 °F 75.2 °F 84% 29.89 in 6.2 mi East 19.6 mph - N/A   Overcast
11:52 PM 80.6 °F 86.2 °F 75.2 °F 84% 29.89 in 6.2 mi ENE 19.6 mph 31.1 mph N/A   Overcast